{"data":{"norad_id":40018,"epoch":"2026-09-20T02:11:59.195904Z","epoch_age_seconds":49724,"freshness":"FRESH","line1":"1 40018U 14033J   26263.09165736  .00000376  00000+0  62869-4 0  9990","line2":"2 40018  97.9194  34.0465 0064670 254.9034 104.5014 14.74309538657542","mean_motion":14.74309538,"eccentricity":0.006467,"inclination_deg":97.9194,"raan_deg":34.0465,"arg_perigee_deg":254.9034,"mean_anomaly_deg":104.5014,"bstar":6.2869e-5,"rev_number":65754,"period_min":97.672840260768,"perigee_km":601.91012215042,"apogee_km":692.77769220385,"semimajor_km":7025.4809071771,"source":"CELESTRAK","updated_at":"2026-09-20T09:00:47.445307Z"}}